, OR

(GMT )
Tillamook

Weather History for KTMK - August, 2013

Change the Weather History Date:

Saturday, August 24, 2013

  Actual Average Record
Temperature  
Mean Temperature 65 °F -  
Max Temperature 71 °F - - ()
Min Temperature 59 °F - - ()
Growing Degree Days 15 (Base 50)    
Moisture  
Dew Point 58 °F    
Average Humidity 83    
Maximum Humidity 100    
Minimum Humidity 56    
Precipitation  
Precipitation 0.00 in - - ()
Sea Level Pressure  
Sea Level Pressure 29.94 in    
Wind  
Wind Speed 1 mph (WNW)    
Max Wind Speed 10 mph    
Max Gust Speed -    
Visibility 10 miles    
Events      
Averages and records for this station are not official NWS values.
T = Trace of Precipitation, MM = Missing Value Source: NWS Daily Summary

Daily Weather History Graph

Daily Weather History Graph

Search for Another Location

Airport or City:

Trip Planner

Search our weather history database for the weather conditions in past years. The results will help you decide how hot, cold, wet, or windy it might be!

Date:

Astronomy

Aug. 24, 2013 Rise Set
Actual Time 7:27 AM MDT 9:06 PM MDT
Civil Twilight 6:56 AM MDT 9:37 PM MDT
Nautical Twilight 6:18 AM MDT 10:15 PM MDT
Astronomical Twilight 5:36 AM MDT 10:56 PM MDT
Moon 10:48 PM MDT (8/24) 11:48 AM MDT (8/24)
Length of Visible Light 14h 41m
Length of Day
13h 39m
Waning Gibbous, 84% of the Moon is Illuminated
Aug 24
Waning Gibbous
Aug 28
Last Quarter
Sep 5
New
Sep 12
First Quarter
Sep 19
Full

Hourly Weather History & Observations

Time (MDT) Temp. Dew Point Humidity Pressure Visibility Wind Dir Wind Speed Gust Speed Precip Events Conditions
12:15 AM 60.8 °F 60.8 °F 100% 29.95 in 10.0 mi Calm Calm - N/A   Overcast
12:35 AM 60.8 °F 60.8 °F 100% 29.94 in 4.0 mi Calm Calm - N/A   Overcast
12:55 AM 60.8 °F 60.8 °F 100% 29.94 in 10.0 mi Calm Calm - N/A   Overcast
1:15 AM 60.8 °F 60.8 °F 100% 29.94 in 10.0 mi Calm Calm - N/A   Overcast
1:35 AM 60.8 °F 60.8 °F 100% 29.94 in 10.0 mi Calm Calm - N/A   Overcast
1:55 AM 60.8 °F 60.8 °F 100% 29.94 in 10.0 mi Calm Calm - N/A   Overcast
2:15 AM 60.8 °F 60.8 °F 100% 29.94 in 10.0 mi Calm Calm - N/A   Overcast
2:35 AM 59.0 °F 59.0 °F 100% 29.94 in 10.0 mi Calm Calm - N/A   Overcast
2:55 AM 60.8 °F 60.8 °F 100% 29.94 in 10.0 mi Calm Calm - N/A   Overcast
3:15 AM 60.8 °F 60.8 °F 100% 29.94 in 10.0 mi Calm Calm - N/A   Overcast
3:35 AM 59.0 °F 59.0 °F 100% 29.94 in 10.0 mi Calm Calm - N/A   Overcast
3:55 AM 59.0 °F 59.0 °F 100% 29.94 in 10.0 mi Calm Calm - N/A   Overcast
4:15 AM 59.0 °F 59.0 °F 100% 29.94 in 10.0 mi Calm Calm - N/A   Overcast
4:35 AM 59.0 °F 59.0 °F 100% 29.94 in 10.0 mi Calm Calm - N/A   Overcast
4:55 AM 59.0 °F 59.0 °F 100% 29.94 in 10.0 mi Calm Calm - N/A   Overcast
5:15 AM 59.0 °F 59.0 °F 100% 29.94 in 10.0 mi Calm Calm - N/A   Overcast
5:35 AM 59.0 °F 59.0 °F 100% 29.94 in 10.0 mi Calm Calm - N/A   Overcast
5:55 AM 59.0 °F 59.0 °F 100% 29.94 in 7.0 mi Calm Calm - N/A   Overcast
6:15 AM 59.0 °F 59.0 °F 100% 29.94 in 3.0 mi Calm Calm - N/A   Overcast
6:35 AM 59.0 °F 59.0 °F 100% 29.93 in 7.0 mi Calm Calm - N/A   Overcast
6:55 AM 59.0 °F 59.0 °F 100% 29.93 in 10.0 mi Calm Calm - N/A   Overcast
7:15 AM 59.0 °F 59.0 °F 100% 29.93 in 10.0 mi Calm Calm - N/A   Overcast
7:35 AM 59.0 °F 59.0 °F 100% 29.93 in 10.0 mi Calm Calm - N/A   Overcast
7:55 AM 59.0 °F 59.0 °F 100% 29.93 in 10.0 mi Calm Calm - N/A   Overcast
8:15 AM 59.0 °F 59.0 °F 100% 29.94 in 10.0 mi Calm Calm - N/A   Overcast
8:35 AM 59.0 °F 59.0 °F 100% 29.94 in 10.0 mi Calm Calm - N/A   Overcast
8:55 AM 59.0 °F 59.0 °F 100% 29.94 in 10.0 mi Calm Calm - N/A   Overcast
9:15 AM 60.8 °F 60.8 °F 100% 29.94 in 10.0 mi Calm Calm - N/A   Overcast
9:35 AM 60.8 °F 60.8 °F 100% 29.94 in 10.0 mi Calm Calm - N/A   Overcast
9:55 AM 60.8 °F 60.8 °F 100% 29.94 in 10.0 mi Calm Calm - N/A   Overcast
10:15 AM 62.6 °F 60.8 °F 94% 29.94 in 10.0 mi Calm Calm - N/A   Overcast
10:35 AM 62.6 °F 59.0 °F 88% 29.94 in 10.0 mi Calm Calm - N/A   Overcast
10:55 AM 62.6 °F 59.0 °F 88% 29.94 in 10.0 mi Calm Calm - N/A   Mostly Cloudy
11:15 AM 64.4 °F 59.0 °F 83% 29.94 in 10.0 mi Calm Calm - N/A   Mostly Cloudy
11:35 AM 64.4 °F 55.4 °F 73% 29.94 in 10.0 mi Calm Calm - N/A   Scattered Clouds
11:55 AM 68.0 °F 57.2 °F 68% 29.94 in 10.0 mi Calm Calm - N/A   Scattered Clouds
12:15 PM 68.0 °F 57.2 °F 68% 29.94 in 10.0 mi Calm Calm - N/A   Scattered Clouds
12:35 PM 69.8 °F 55.4 °F 60% 29.94 in 10.0 mi Calm Calm - N/A   Mostly Cloudy
12:55 PM 68.0 °F 57.2 °F 68% 29.94 in 10.0 mi WNW 8.1 mph - N/A   Overcast
1:15 PM 68.0 °F 55.4 °F 64% 29.93 in 10.0 mi NW 4.6 mph - N/A   Overcast
1:35 PM 68.0 °F 55.4 °F 64% 29.93 in 10.0 mi NW 8.1 mph - N/A   Overcast
1:55 PM 68.0 °F 55.4 °F 64% 29.93 in 10.0 mi West 5.8 mph - N/A   Overcast
2:15 PM 69.8 °F 55.4 °F 60% 29.93 in 10.0 mi WNW 8.1 mph - N/A   Overcast
2:35 PM 69.8 °F 55.4 °F 60% 29.93 in 10.0 mi WNW 10.4 mph - N/A   Mostly Cloudy
2:55 PM 71.6 °F 55.4 °F 57% 29.93 in 10.0 mi WNW 6.9 mph - N/A   Scattered Clouds
3:15 PM 69.8 °F 57.2 °F 64% 29.94 in 10.0 mi West 8.1 mph - N/A   Mostly Cloudy
3:35 PM 69.8 °F 57.2 °F 64% 29.94 in 10.0 mi WSW 5.8 mph - N/A   Mostly Cloudy
3:55 PM 71.6 °F 57.2 °F 60% 29.94 in 10.0 mi West 8.1 mph - N/A   Scattered Clouds
4:15 PM 71.6 °F 57.2 °F 60% 29.94 in 10.0 mi WNW 8.1 mph - N/A   Scattered Clouds
4:35 PM 69.8 °F 57.2 °F 64% 29.93 in 10.0 mi WSW 10.4 mph - N/A   Scattered Clouds
4:55 PM 68.0 °F 57.2 °F 68% 29.93 in 10.0 mi WSW 9.2 mph - N/A   Scattered Clouds
5:15 PM 68.0 °F 57.2 °F 68% 29.93 in 10.0 mi Calm Calm - N/A   Scattered Clouds
5:35 PM 69.8 °F 55.4 °F 60% 29.93 in 10.0 mi Calm Calm - N/A   Scattered Clouds
5:55 PM 69.8 °F 53.6 °F 56% 29.92 in 10.0 mi NW 8.1 mph - N/A   Scattered Clouds
6:15 PM 69.8 °F 55.4 °F 60% 29.92 in 10.0 mi NW 10.4 mph - N/A   Clear
6:35 PM 68.0 °F 55.4 °F 64% 29.92 in 10.0 mi WNW 5.8 mph - N/A   Clear
6:55 PM 68.0 °F 55.4 °F 64% 29.92 in 10.0 mi WNW 9.2 mph - N/A   Clear
7:15 PM 68.0 °F 53.6 °F 60% 29.92 in 10.0 mi WNW 9.2 mph - N/A   Clear
7:35 PM 68.0 °F 53.6 °F 60% 29.92 in 10.0 mi West 8.1 mph - N/A   Clear
7:55 PM 68.0 °F 53.6 °F 60% 29.92 in 10.0 mi Calm Calm - N/A   Clear
8:15 PM 66.2 °F 53.6 °F 64% 29.92 in 10.0 mi Calm Calm - N/A   Clear
8:35 PM 64.4 °F 57.2 °F 77% 29.92 in 10.0 mi Calm Calm - N/A   Clear
8:55 PM 62.6 °F 57.2 °F 82% 29.92 in 10.0 mi Calm Calm - N/A   Clear
9:15 PM 62.6 °F 57.2 °F 82% 29.93 in 10.0 mi Calm Calm - N/A   Clear
9:35 PM 60.8 °F 57.2 °F 88% 29.93 in 10.0 mi Calm Calm - N/A   Clear
9:55 PM 60.8 °F 55.4 °F 82% 29.94 in 10.0 mi Calm Calm - N/A   Scattered Clouds
10:15 PM 60.8 °F 57.2 °F 88% 29.94 in 10.0 mi Calm Calm - N/A   Overcast
10:35 PM 60.8 °F 57.2 °F 88% 29.94 in 10.0 mi Calm Calm - N/A   Overcast
10:55 PM 59.0 °F 55.4 °F 88% 29.95 in 10.0 mi Calm Calm - N/A   Overcast
11:15 PM 59.0 °F 55.4 °F 88% 29.95 in 10.0 mi Calm Calm - N/A   Mostly Cloudy
11:35 PM 59.0 °F 55.4 °F 88% 29.95 in 10.0 mi Calm Calm - N/A   Mostly Cloudy
11:55 PM 59.0 °F 57.2 °F 94% 29.95 in 10.0 mi Calm Calm - N/A   Overcast